Location: Molino di Ancona
(43.6167°N, 13.3667°E)
Time: 20:00:02
(UTC+00:00)

IRIDIUM 106 - Pass Details

Date: 15 December 2019
Orbit: 776 x 779 km, 86.4° (Epoch: 21 January)

Event Time Altitude Azimuth Distance (km) Brightness Sun altitude
Rises 05:16:01 0° 356° (N) 3,271 7.3 -13.3°
Reaches altitude 10° 05:18:22 10° 357° (N) 2,338 6.6 -12.9°
Maximum altitude 05:23:37 89° 79° (E) 783 4.3 -12.0°
Drops below altitude 10° 05:28:49 10° 178° (S) 2,319 7.1 -11.1°
Sets 05:31:09 0° 179° (S) 3,241 7.9 -10.7°
